Location: Abraham Lincoln Continuation High School
(33.9711°N, 117.3662°W)
Time: 11:00:03
(UTC+00:00)

Lacrosse 5 - Pass Details

Date: 20 January 2021
Orbit: 715 x 724 km, 57.0° (Epoch: 03 March)

Event Time Altitude Azimuth Distance (km) Brightness Sun altitude
Rises 02:45:49 0° 330° (NNW) 3,119 5.4 -20.2°
Reaches altitude 10° 02:48:30 10° 341° (NNW) 2,197 4.5 -20.7°
Enters shadow 02:51:43 26° 18° (NNE) 1,388 3.1 -21.4°
